When you browse on this site, cookies collect data to enhance your experience and personalize the content and advertising you see.
Visit our Privacy Policy to learn more. By continuing to use the site, you agree to this use of cookies and data.
  • In Hungary
  • List of Countries
  • For 7 days
  • Water Temperature
  • Satellite Maps
  • Weather Map
  • News
  • Weather Widgets
  • user-avatar
    Login

    Hourly Weather Kalanwali

    Today, 23 July, Tuesday

    Time Temperature Precipitation Wind Pressure Humidity
    00:00 +36°C° 0 mm 2 mps 731 mmHg 54%
    01:00 +35°C° 0 mm 2 mps 731 mmHg 56%
    02:00 +35°C° 0 mm 2 mps 731 mmHg 57%
    03:00 +35°C° 0 mm 2 mps 731 mmHg 59%
    04:00 +34°C° 0 mm 2 mps 731 mmHg 61%
    05:00 +34°C° 0 mm 3 mps 731 mmHg 67%
    06:00 +35°C° 0.3 mm 3 mps 731 mmHg 63%
    07:00 +36°C° 0.3 mm 3 mps 732 mmHg 59%
    08:00 +37°C° 0.3 mm 3 mps 732 mmHg 55%
    09:00 +39°C° 0 mm 2 mps 732 mmHg 48%
    10:00 +41°C° 0 mm 1 mps 732 mmHg 41%
    11:00 +41°C° 0 mm 2 mps 732 mmHg 38%
    12:00 +42°C° 0 mm 1 mps 732 mmHg 36%
    13:00 +42°C° 0 mm 1 mps 731 mmHg 34%
    14:00 +40°C° 0 mm 0 mps 731 mmHg 31%
    15:00 +43°C° 0 mm 1 mps 730 mmHg 31%
    16:00 +43°C° 0 mm 1 mps 730 mmHg 32%
    17:00 +42°C° 0 mm 1 mps 729 mmHg 32%
    18:00 +42°C° 0 mm 1 mps 729 mmHg 34%
    19:00 +41°C° 0 mm 1 mps 729 mmHg 36%
    20:00 +40°C° 0 mm 1 mps 729 mmHg 38%
    21:00 +40°C° 0 mm 1 mps 729 mmHg 39%
    22:00 +39°C° 0 mm 1 mps 729 mmHg 40%
    23:00 +36°C° 0 mm 0 mps 729 mmHg 41%

    Tomorrow, 24 July, Wednesday

    Time Temperature Precipitation Wind Pressure Humidity
    00:00 +39°C° 0 mm 1 mps 729 mmHg 42%
    01:00 +37°C° 0 mm 1 mps 729 mmHg 42%
    02:00 +37°C° 0 mm 1 mps 729 mmHg 43%
    03:00 +37°C° 0 mm 1 mps 729 mmHg 44%
    04:00 +37°C° 0 mm 1 mps 729 mmHg 44%
    05:00 +36°C° 0 mm 1 mps 729 mmHg 45%
    06:00 +37°C° 0 mm 1 mps 729 mmHg 43%
    07:00 +39°C° 0 mm 2 mps 730 mmHg 41%
    08:00 +40°C° 0 mm 2 mps 730 mmHg 39%
    09:00 +42°C° 0 mm 3 mps 730 mmHg 36%
    10:00 +44°C° 0 mm 4 mps 730 mmHg 32%
    11:00 +47°C° 0 mm 4 mps 730 mmHg 29%
    12:00 +47°C° 0 mm 4 mps 729 mmHg 28%
    13:00 +45°C° 0 mm 4 mps 729 mmHg 28%
    14:00 +45°C° 0 mm 4 mps 728 mmHg 28%
    15:00 +45°C° 0 mm 3 mps 727 mmHg 28%
    16:00 +45°C° 0 mm 3 mps 727 mmHg 28%
    17:00 +45°C° 0 mm 3 mps 726 mmHg 29%
    18:00 +44°C° 0.1 mm 3 mps 727 mmHg 31%
    19:00 +42°C° 0.1 mm 2 mps 727 mmHg 33%
    20:00 +41°C° 0.1 mm 2 mps 727 mmHg 35%
    21:00 +40°C° 0.2 mm 2 mps 727 mmHg 36%
    22:00 +40°C° 0.2 mm 2 mps 727 mmHg 37%
    23:00 +39°C° 0.2 mm 2 mps 728 mmHg 38%

    Day after tomorrow, 25 July, Thursday

    Time Temperature Precipitation Wind Pressure Humidity
    00:00 +39°C° 0 mm 3 mps 727 mmHg 40%
    01:00 +38°C° 0 mm 3 mps 727 mmHg 42%
    02:00 +38°C° 0 mm 3 mps 727 mmHg 43%
    03:00 +38°C° 0.1 mm 3 mps 728 mmHg 44%
    04:00 +38°C° 0.1 mm 4 mps 728 mmHg 45%
    05:00 +37°C° 0.1 mm 4 mps 728 mmHg 46%
    06:00 +39°C° 0 mm 5 mps 728 mmHg 46%
    07:00 +39°C° 0 mm 6 mps 729 mmHg 46%
    08:00 +40°C° 0 mm 6 mps 729 mmHg 46%
    09:00 +40°C° 0 mm 6 mps 729 mmHg 43%
    10:00 +41°C° 0 mm 5 mps 729 mmHg 40%
    11:00 +42°C° 0 mm 4 mps 730 mmHg 37%
    12:00 +43°C° 0 mm 4 mps 729 mmHg 34%
    13:00 +45°C° 0 mm 4 mps 728 mmHg 31%
    14:00 +47°C° 0 mm 4 mps 728 mmHg 29%
    15:00 +45°C° 0 mm 4 mps 727 mmHg 29%
    16:00 +45°C° 0 mm 4 mps 727 mmHg 29%
    17:00 +45°C° 0 mm 4 mps 726 mmHg 29%
    18:00 +41°C° 0.2 mm 6 mps 727 mmHg 43%
    19:00 +38°C° 0.2 mm 8 mps 728 mmHg 56%
    20:00 +33°C° 0.2 mm 10 mps 728 mmHg 69%
    21:00 +33°C° 0.3 mm 10 mps 729 mmHg 71%
    22:00 +32°C° 0.3 mm 9 mps 729 mmHg 72%
    23:00 +32°C° 0.3 mm 8 mps 730 mmHg 73%

    26 July, Friday

    Time Temperature Precipitation Wind Pressure Humidity
    00:00 +31°C° 1.4 mm 8 mps 729 mmHg 75%
    01:00 +30°C° 1.4 mm 7 mps 729 mmHg 77%
    02:00 +29°C° 1.4 mm 7 mps 729 mmHg 79%
    03:00 +29°C° 1.7 mm 7 mps 729 mmHg 79%
    04:00 +29°C° 1.7 mm 6 mps 729 mmHg 80%
    05:00 +29°C° 1.7 mm 6 mps 729 mmHg 81%
    06:00 +30°C° 0.9 mm 6 mps 730 mmHg 80%
    07:00 +30°C° 0.9 mm 6 mps 730 mmHg 79%
    08:00 +30°C° 0.9 mm 6 mps 730 mmHg 78%
    09:00 +32°C° 0 mm 6 mps 730 mmHg 75%
    10:00 +33°C° 0 mm 6 mps 731 mmHg 72%
    11:00 +34°C° 0 mm 6 mps 731 mmHg 69%
    12:00 +33°C° 0 mm 5 mps 730 mmHg 69%
    13:00 +33°C° 0 mm 4 mps 730 mmHg 70%
    14:00 +33°C° 0 mm 4 mps 730 mmHg 71%
    15:00 +33°C° 0 mm 3 mps 730 mmHg 69%
    16:00 +33°C° 0 mm 3 mps 729 mmHg 68%
    17:00 +32°C° 0 mm 2 mps 729 mmHg 67%
    18:00 +32°C° 0 mm 2 mps 729 mmHg 68%
    19:00 +32°C° 0 mm 1 mps 730 mmHg 69%
    20:00 +31°C° 0 mm 1 mps 730 mmHg 70%
    21:00 +31°C° 0 mm 1 mps 730 mmHg 71%
    22:00 +31°C° 0 mm 2 mps 730 mmHg 71%
    23:00 +31°C° 0 mm 2 mps 730 mmHg 72%

    27 July, Saturday

    Time Temperature Precipitation Wind Pressure Humidity
    00:00 +31°C° 0 mm 2 mps 730 mmHg 72%
    01:00 +31°C° 0 mm 2 mps 730 mmHg 73%
    02:00 +31°C° 0 mm 2 mps 730 mmHg 73%
    03:00 +31°C° 0 mm 3 mps 730 mmHg 73%
    04:00 +30°C° 0 mm 3 mps 729 mmHg 72%
    05:00 +30°C° 0 mm 3 mps 729 mmHg 72%
    06:00 +30°C° 0 mm 3 mps 730 mmHg 72%
    07:00 +30°C° 0 mm 3 mps 730 mmHg 72%
    08:00 +30°C° 0 mm 4 mps 731 mmHg 71%
    09:00 +33°C° 0 mm 4 mps 731 mmHg 67%
    10:00 +34°C° 0 mm 5 mps 731 mmHg 62%
    11:00 +35°C° 0 mm 5 mps 731 mmHg 58%
    12:00 +36°C° 0.2 mm 5 mps 730 mmHg 57%
    13:00 +36°C° 0.2 mm 6 mps 730 mmHg 55%
    14:00 +38°C° 0.2 mm 6 mps 730 mmHg 54%
    15:00 +36°C° 0.4 mm 6 mps 729 mmHg 55%
    16:00 +36°C° 0.4 mm 6 mps 729 mmHg 57%
    17:00 +36°C° 0.4 mm 5 mps 729 mmHg 58%
    18:00 +35°C° 0 mm 5 mps 729 mmHg 60%
    19:00 +35°C° 0 mm 4 mps 729 mmHg 62%
    20:00 +34°C° 0 mm 4 mps 729 mmHg 65%
    21:00 +34°C° 0 mm 4 mps 729 mmHg 65%
    22:00 +33°C° 0 mm 4 mps 729 mmHg 65%
    23:00 +33°C° 0 mm 4 mps 730 mmHg 65%

    28 July, Sunday

    Time Temperature Precipitation Wind Pressure Humidity
    00:00 +33°C° 0 mm 4 mps 729 mmHg 67%
    01:00 +33°C° 0 mm 3 mps 729 mmHg 69%
    02:00 +31°C° 0 mm 3 mps 729 mmHg 72%
    03:00 +31°C° 0 mm 3 mps 729 mmHg 73%
    04:00 +31°C° 0 mm 3 mps 729 mmHg 75%
    05:00 +32°C° 0 mm 4 mps 730 mmHg 76%
    06:00 +32°C° 0 mm 4 mps 730 mmHg 73%
    07:00 +33°C° 0 mm 4 mps 730 mmHg 70%
    08:00 +34°C° 0 mm 5 mps 731 mmHg 66%
    09:00 +35°C° 0.2 mm 5 mps 731 mmHg 62%
    10:00 +36°C° 0.2 mm 5 mps 731 mmHg 57%
    11:00 +39°C° 0.2 mm 5 mps 731 mmHg 53%
    12:00 +39°C° 1.1 mm 5 mps 731 mmHg 51%
    13:00 +40°C° 1.1 mm 5 mps 730 mmHg 50%
    14:00 +40°C° 1.1 mm 5 mps 730 mmHg 48%
    15:00 +40°C° 0 mm 5 mps 730 mmHg 48%
    16:00 +40°C° 0 mm 4 mps 729 mmHg 48%
    17:00 +40°C° 0 mm 4 mps 729 mmHg 48%
    18:00 +38°C° 0 mm 4 mps 729 mmHg 51%
    19:00 +37°C° 0 mm 4 mps 729 mmHg 55%
    20:00 +36°C° 0 mm 3 mps 730 mmHg 58%
    21:00 +36°C° 0.2 mm 3 mps 730 mmHg 59%
    22:00 +35°C° 0.2 mm 4 mps 730 mmHg 60%
    23:00 +35°C° 0.2 mm 4 mps 731 mmHg 61%
    Show more